RH
37 31 30 33 63 65 68 69 73 72 70 71 76 75 75 72 69 64 67 69 72 74 75 78 77 75 77 73 74 75 75 77 79 82 81 76 76 72 72 69 67 62 63
37 32 30 31 37 71 72 70 73 74 71 70 71 73 71 72 70 68 68 74 75 75 76 77 79 79 83 80 83 86 86 82 78 86 85 86 70 62 59 63 62 62 61
36 36 31 29 28 44 60 67 72 73 71 73 77 77 79 78 80 83 84 79 80 83 82 84 87 88 90 87 86 87 95 94 87 78 82 90 89 74 60 62 62 62 63
28 36 34 31 29 30 44 47 58 76 82 83 83 75 82 82 82 84 81 83 90 87 86 89 94 95 91 93 92 90 87 90 91 90 86 88 83 90 86 67 65 65 67
34 35 37 29 30 33 39 44 48 58 67 74 78 78 72 51 60 65 70 58 53 52 52 53 56 61 69 78 88 86 90 89 94 92 86 94 88 80 90 93 81 71 72
34 35 37 30 36 38 42 48 48 49 50 50 46 44 43 42 41 46 50 57 64 65 59 58 61 66 69 73 80 85 90 91 86 90 86 91 93 91 98 99 94 89 79
34 36 46 42 52 52 48 52 50 52 53 52 51 51 51 49 51 58 59 62 66 73 73 66 66 67 66 65 67 73 86 92 85 85 86 83 87 97 95 94 93 93 86
36 38 45 45 52 61 62 55 54 58 58 58 58 58 57 59 61 63 64 66 68 72 70 66 67 68 66 65 67 72 91 89 88 95 90 94 92 90 94 96 96 98 95
31 41 44 46 52 60 62 59 58 59 61 63 61 61 61 62 61 62 65 67 66 66 66 67 68 68 66 66 67 74 85 88 89 95 93 99 99 100 99 98 97 93 97
27 37 38 44 53 56 60 57 59 61 63 62 63 63 62 63 62 65 64 64 66 65 66 68 69 70 70 71 72 81 90 94 96 92 97 96 97 96 94 96 95 94 92
35 37 38 43 52 56 56 58 61 62 62 62 62 62 58 60 61 60 61 62 64 66 69 70 73 75 74 75 78 84 86 92 92 92 92 93 94 95 92 93 93 95 96
40 43 46 51 55 58 60 59 59 60 60 60 60 63 63 62 63 65 67 68 72 72 72 74 77 79 80 82 82 84 87 90 90 91 91 90 92 91 89 89 92 93 92
44 51 56 58 56 59 59 59 61 62 64 62 61 62 64 68 70 71 72 74 76 78 79 79 81 83 84 88 88 87 86 86 87 87 87 90 92 93 96 96 97 96 94
50 54 60 61 56 58 56 57 58 60 62 63 64 67 70 71 73 76 78 80 82 82 84 85 86 88 92 97 97 96 94 91 92 91 91 92 94 97 98 96 90 94 89
51 55 61 65 56 56 56 58 58 61 63 64 66 68 70 73 76 80 84 85 86 88 88 89 92 98 99 98 98 98 98 98 98 98 96 95 95 96 92 88 80 82 83
35 53 58 58 56 54 54 55 58 62 63 66 67 69 72 75 78 83 87 91 92 92 91 93 92 96 96 96 100 100 98 96 94 93 86 74 72 82 79 83 53 59 60
40 42 56 56 52 51 52 55 59 62 65 68 70 72 75 78 82 87 90 96 95 94 97 98 97 96 98 98 99 100 98 96 89 71 62 58 52 54 53 74 70 77 69
41 42 49 49 47 49 52 55 59 63 67 68 70 73 76 79 84 90 94 97 97 98 99 99 97 98 98 99 96 92 85 68 55 64 59 68 74 51 50 50 55 63 52
43 39 35 39 45 48 52 55 60 65 68 69 69 72 76 82 87 94 98 99 98 99 99 98 93 90 81 77 43 35 39 44 49 59 64 64 68 59 54 50 41 43 50
46 42 41 38 46 50 53 56 61 65 69 70 72 74 78 85 88 95 99 100 100 99 99 94 88 79 66 56 44 54 55 54 52 56 57 56 68 65 52 55 45 52 61
56 54 51 53 53 53 55 60 63 67 68 71 74 78 83 88 87 93 98 99 100 100 97 90 72 65 72 63 50 37 48 45 46 46 45 48 45 58 77 52 50 61 64
61 58 62 63 60 58 59 64 65 67 68 73 76 82 87 90 91 97 100 100 100 99 94 88 73 72 66 70 69 48 41 49 45 47 46 49 51 48 56 50 55 57 58
66 64 66 68 67 66 66 69 74 72 75 79 83 87 91 96 98 100 100 100 100 99 95 86 74 68 65 63 80 93 86 68 47 47 46 50 57 38 35 32 35 68 49
60 61 67 73 74 72 72 73 78 78 80 84 87 90 93 99 99 100 100 100 99 98 89 74 66 57 52 49 50 64 80 83 82 52 50 44 48 49 42 46 36 34 37
63 61 61 63 69 71 72 75 76 78 81 82 84 89 93 99 99 99 98 99 97 95 92 74 58 52 47 41 36 35 42 56 58 64 58 61 63 53 44 38 38 40 44
84 77 73 73 72 72 72 74 77 78 82 85 85 88 94 99 99 99 100 100 96 95 95 75 57 52 47 42 40 39 45 51 64 72 65 60 58 58 50 43 41 40 46
Wind_Speed
10 11 8 5 7 11 13 17 19 19 20 20 19 18 18 16 13 11 11 9 9 8 11 11 10 10 11 12 11 12 13 13 13 14 17 19 15 18 19 19 13 11 0
9 13 14 11 9 10 14 17 18 19 18 20 18 16 15 15 14 14 12 9 11 13 13 12 13 14 13 14 14 14 14 15 15 8 9 3 7 14 13 14 6 2 5
8 9 14 13 11 10 12 12 14 15 17 16 17 16 16 14 13 11 11 10 11 12 13 15 15 16 16 17 17 16 14 16 16 15 10 2 3 4 2 2 1 0 1
15 10 14 16 16 12 10 10 10 10 15 17 13 14 10 6 5 9 11 12 12 12 9 9 12 12 12 12 13 14 15 13 16 17 17 20 13 2 3 1 3 1 5
8 10 14 19 18 17 15 12 12 12 14 13 10 10 8 9 10 8 8 6 6 7 7 6 7 6 7 8 9 9 10 12 14 14 15 12 15 13 8 4 7 5 2
9 7 21 25 24 20 15 15 14 13 11 11 12 12 12 10 8 7 6 5 4 5 5 4 4 4 6 6 7 7 7 8 12 13 15 16 11 5 7 4 6 6 4
9 7 10 14 18 23 23 18 16 15 12 11 10 10 10 10 9 8 8 6 5 3 5 5 4 5 6 7 7 8 7 8 11 12 14 16 16 14 11 9 5 6 5
7 9 12 20 19 16 17 21 18 16 14 15 12 10 9 9 10 9 7 7 6 5 6 6 5 7 7 7 7 7 5 7 11 10 11 12 15 15 13 8 5 1 3
4 6 12 23 25 20 18 17 18 18 15 14 13 11 10 8 8 7 6 5 4 5 5 5 5 6 6 6 6 5 8 6 9 7 7 5 4 3 4 4 4 4 2
2 5 4 16 23 23 20 18 19 18 16 14 13 12 12 9 6 7 5 4 3 4 4 5 5 6 5 6 6 4 8 3 6 5 5 5 3 4 4 4 3 3 3
4 4 4 11 23 23 25 23 20 20 17 15 15 13 9 9 8 5 4 4 4 4 4 4 4 5 5 4 3 4 5 3 5 5 7 6 5 3 1 1 3 4 5
2 3 7 13 17 18 21 28 27 24 23 18 10 9 10 8 6 4 3 2 3 4 4 4 3 4 4 2 1 2 0 2 3 2 3 3 2 3 5 4 4 4 1
3 4 5 9 16 19 17 18 19 18 18 18 17 12 9 8 6 5 3 2 2 2 2 2 3 4 4 3 2 3 4 5 5 5 4 5 5 4 5 5 4 5 4
7 5 6 8 14 17 18 20 21 21 19 17 15 12 10 8 7 6 4 4 3 1 2 2 5 5 4 2 1 3 5 5 5 6 6 6 6 7 5 6 5 5 4
7 7 6 6 16 20 21 19 18 19 18 16 14 12 10 9 8 5 4 5 4 6 5 4 6 3 2 2 4 7 7 9 9 7 6 5 5 6 7 5 6 5 6
5 9 9 10 15 20 22 22 23 20 17 17 16 15 14 12 9 8 7 6 4 3 3 4 4 2 1 2 5 7 9 9 7 9 8 6 7 7 9 10 8 4 5
7 7 10 12 18 23 23 24 24 22 21 19 16 15 13 12 12 10 8 7 5 5 4 4 4 3 3 6 7 6 9 8 9 9 8 6 6 5 6 8 6 8 9
6 6 8 19 23 23 25 24 23 23 20 18 17 16 14 13 12 10 9 9 7 7 7 7 5 5 5 6 8 7 8 9 9 8 7 6 4 4 5 4 6 4 4
6 5 8 11 26 25 27 26 24 23 20 19 18 16 16 15 13 11 10 11 10 10 10 9 10 10 7 7 7 7 7 6 7 7 6 7 3 3 4 5 5 3 4
6 5 10 13 23 24 28 26 24 22 20 19 18 17 16 16 13 13 13 12 12 12 12 12 10 9 8 8 7 6 5 6 5 5 4 6 3 2 3 5 3 4 3
9 7 4 7 18 22 24 22 20 20 18 17 16 16 16 15 13 13 13 12 14 13 12 10 10 10 8 7 8 8 7 5 6 5 4 3 3 3 2 2 2 3 2
6 5 11 14 14 16 17 16 17 15 16 16 16 16 15 12 13 14 13 13 14 13 12 11 11 11 11 10 10 10 10 7 7 6 5 5 4 3 3 4 3 2 4
3 6 9 9 8 9 11 13 14 16 15 15 15 15 14 12 12 13 13 13 14 15 14 15 14 14 14 13 12 12 10 9 9 7 7 6 4 3 4 5 5 5 4
5 6 7 7 8 8 9 11 13 13 14 14 14 14 13 13 10 12 13 15 16 16 14 16 17 15 15 15 14 15 13 11 10 9 7 7 7 5 5 6 7 7 7
6 6 6 6 7 7 8 9 11 13 14 14 13 14 13 13 12 14 16 17 18 19 18 18 18 17 17 18 15 14 15 14 13 11 9 10 11 10 10 9 8 9 9
2 3 5 3 3 4 6 7 9 12 14 15 15 17 14 14 15 16 16 15 15 15 16 15 16 17 16 13 13 14 13 13 12 14 15 15 14 14 13 11 12 11 11
Wind_Direction
170 148 181 193 225 185 183 192 195 189 185 190 190 188 195 201 217 213 210 204 210 227 222 232 246 257 257 259 269 274 281 282 282 289 283 283 279 284 272 263 262 280 61
150 162 171 182 195 203 198 201 201 201 193 193 199 206 201 207 217 220 222 223 233 233 237 242 243 252 253 257 263 270 281 279 276 279 300 278 291 281 281 248 198 250 322
190 164 166 177 180 198 202 212 211 214 205 200 199 196 189 180 182 170 184 215 228 232 237 245 252 260 264 267 269 271 271 280 277 265 245 298 234 6 301 73 55 74 303
232 177 167 174 172 186 188 182 184 187 183 190 198 206 199 180 182 194 201 217 235 245 248 248 249 257 263 266 272 274 274 277 275 276 264 257 261 206 299 282 215 291 275
247 189 160 174 168 170 181 187 191 197 201 202 189 186 181 160 170 176 190 213 233 250 260 263 265 259 259 260 268 275 266 261 277 274 275 269 269 262 230 257 259 252 234
223 197 175 173 159 168 181 180 178 179 180 178 177 174 179 180 177 175 169 187 213 266 278 272 269 259 261 266 272 282 285 283 273 270 266 271 254 243 219 223 234 247 227
214 190 153 155 156 171 171 179 178 171 168 162 160 166 164 165 157 158 168 167 177 189 259 288 282 284 286 284 282 281 272 269 272 274 274 267 270 255 245 230 244 219 199
196 185 153 155 164 176 181 170 174 166 165 163 162 166 166 169 172 174 178 189 190 220 264 281 286 283 286 285 283 282 273 268 282 275 271 264 259 255 254 227 187 229 227
339 178 162 163 162 167 180 176 168 163 163 165 160 160 160 166 168 159 167 186 216 242 263 277 282 286 295 295 292 281 262 251 271 277 271 261 250 204 206 199 198 155 199
212 100 93 152 157 168 172 172 169 165 164 159 165 164 163 162 159 165 164 176 222 254 270 277 287 292 297 301 302 291 292 270 264 263 255 239 222 228 231 233 218 208 238
157 139 165 170 157 161 165 164 163 163 163 166 172 173 150 162 170 173 189 211 236 255 261 278 287 294 292 298 305 276 274 254 266 266 232 237 233 235 239 223 211 203 216
90 149 151 141 151 159 166 162 169 176 172 172 165 172 169 167 168 178 201 215 226 264 262 270 276 283 295 301 258 289 250 218 212 225 237 241 183 194 221 222 196 197 175
150 155 154 158 162 162 168 169 163 171 172 162 168 180 178 175 174 185 191 210 230 264 289 289 261 261 271 256 216 142 129 137 140 136 178 128 155 147 116 116 126 120 109
164 179 173 174 176 176 179 174 172 175 171 167 167 172 178 173 187 192 194 207 204 222 262 275 281 278 266 267 182 180 192 178 156 140 149 163 140 124 119 125 128 126 146
167 188 188 185 188 184 183 179 177 172 174 169 172 177 177 179 186 197 218 230 219 211 240 271 291 316 312 237 187 174 164 152 144 137 139 127 140 135 131 149 116 133 135
228 192 187 194 189 184 179 179 175 177 182 179 182 184 182 184 189 190 203 228 229 227 211 199 243 252 245 209 180 166 154 160 160 142 134 134 121 102 96 90 86 108 123
267 224 184 193 194 189 184 182 177 178 181 183 183 185 183 186 192 197 209 215 220 220 212 201 188 204 194 187 173 173 182 174 158 142 140 129 110 108 98 94 90 82 82
270 293 206 192 202 191 186 181 181 183 185 184 183 187 186 187 194 200 205 214 218 218 202 194 195 179 188 161 159 183 171 163 160 145 133 103 127 114 131 129 120 106 75
272 279 306 244 199 186 181 177 176 180 184 187 185 189 191 192 198 206 208 215 213 208 204 195 188 199 183 165 154 149 143 156 149 142 152 141 173 119 125 106 102 117 70
341 332 302 270 190 172 169 169 172 176 186 191 191 194 194 196 202 208 208 218 216 211 201 198 199 188 189 181 180 173 174 174 180 178 176 175 161 137 130 125 117 126 130
346 1 52 96 137 150 161 164 171 185 192 188 188 190 194 195 210 212 209 219 210 205 201 204 196 194 196 206 200 195 188 208 202 199 199 195 213 200 186 167 166 145 161
12 33 83 86 106 138 156 164 179 181 182 182 183 186 189 198 206 206 214 209 204 200 199 203 203 206 200 207 204 200 193 198 206 208 208 228 248 216 205 217 215 213 184
57 72 104 102 116 145 167 162 168 177 177 180 184 186 191 203 206 211 207 204 208 208 205 208 208 212 213 213 211 210 209 217 211 212 218 232 248 236 229 235 242 225 211
101 110 121 129 141 157 164 186 182 184 182 182 187 190 195 200 215 216 217 216 214 211 212 213 216 219 222 222 221 219 214 218 219 221 227 238 239 236 233 237 252 244 232
133 126 120 122 146 170 174 185 187 187 187 190 194 199 206 205 217 225 226 224 232 229 219 224 228 222 223 230 233 232 227 229 231 238 234 227 238 241 241 240 245 242 237
132 109 123 130 185 196 196 194 205 200 200 200 198 200 208 211 218 228 229 233 238 231 229 231 237 241 246 245 238 234 229 225 219 217 229 235 239 242 243 240 243 244 242